Weather Roundup
Issued by NWS

Home | Current Version | Previous Version | Text Only | Print | Product List | Glossary On
Versions: 1 2 3 4 5 6 7 8 9 10 11 12 13 14 15 16 17 18 19 20 21 22 23 24 25 26 27 28 29 30 31 32 33 34 35 36 37 38 39 40 41 42 43 44 45 46 47 48 49 50
000
NZUS93 KARX 211410
HRRWXR

CURRENT HOURLY OBSERVATIONS ACROSS
MUCH OF THE UPPER MISSISSIPPI VALLEY
NATIONAL WEATHER SERVICE LA CROSSE WI
900 AM CDT THU AUG 21 2014


...SOUTHEAST MINNESOTA...


CITY           SKY/WX    TMP DP  RH WIND       PRES   REMARKS
ROCHESTER      RAIN      70  68  93 SE10G18   29.87F FOG
ROCHESTER/MAYO CLOUDY    70  69  96 E9        29.86F
WINONA         LGT RAIN  70  68  94 SE5       29.88F
AUSTIN         TSTM      70  70 100 SE13G18   29.81F
ALBERT LEA     CLOUDY    70  70 100 S13       29.82F
DODGE CENTER   DRIZZLE   68  66  94 E12       29.82F
PRESTON        NOT AVBL
OWATONNA       CLOUDY    70  66  88 CALM      29.83S
FARIBAULT      CLOUDY    72  66  83 SE7       29.80F
$$

...ELSEWHERE IN MINNESOTA...


CITY           SKY/WX    TMP DP  RH WIND       PRES   REMARKS
MINNEAPOLIS    CLOUDY    71  70  96 SE10      29.79F
INTNL FALLS    CLOUDY    61  59  93 SE8       29.90F
DULUTH         DRZL/FOG  61  59  93 E13       29.90F VSB 1/2
RED WING       LGT RAIN  72  70  94 SE10G17   29.80F
REDWOOD FALLS  CLOUDY    74  71  91 E7        29.76R
MANKATO        CLOUDY    72  66  83 SE14      29.79S
WORTHINGTON    CLOUDY    75  16  10 SW6       29.80S
FAIRMONT       CLOUDY    72  66  83 MISG      29.81R
$$

...SOUTHWEST WISCONSIN...


CITY           SKY/WX    TMP DP  RH WIND       PRES   REMARKS
LA CROSSE      LGT RAIN  71  68  90 SW9       29.94R
PRAIRIE DU CHI CLOUDY    71  67  88 CALM      29.90R
BOSCOBEL       CLOUDY    71  68  90 NW6       29.90R
LONE ROCK      CLOUDY    74  69  85 E8        29.91R
PLATTEVILLE    CLOUDY    70  68  94 SE12      29.93R
FORT MC COY    RAIN      68  66  94 E5        29.92R
CAMP DOUGLAS   LGT RAIN  66  66 100 SE7       29.92R
VIROQUA        CLOUDY    67  67 100 CALM      29.94R
WIS DELLS      CLOUDY    68  65  92 CALM      29.92S
$$

...ELSEWHERE IN WISCONSIN...


CITY           SKY/WX    TMP DP  RH WIND       PRES   REMARKS
MILWAUKEE      PTSUNNY   73  66  78 SW6       29.95F
MADISON        CLOUDY    71  67  87 S7        29.92F THUNDER
GREEN BAY      PTSUNNY   70  63  78 SE7       29.96F
EAU CLAIRE     RAIN      67  67 100 S8        29.86F FOG
BLACK RVR FLS  RAIN      67  67 100 NE3       29.92R
MEDFORD        CLOUDY    62  62  99 E7        29.93F
WAUSAU         CLOUDY    64  62  93 SE7       29.94F FOG
WIS RAPIDS     LGT RAIN  65  64  97 E6        29.93F FOG
MARSHFIELD     LGT RAIN  64  63  96 VRB5      29.95R FOG
RICE LAKE      TSTM      64  62  94 CALM      29.91R VSB 1/2
$$

...NORTHEAST IOWA...


CITY           SKY/WX    TMP DP  RH WIND       PRES   REMARKS
WATERLOO       CLOUDY    73  71  93 E6        29.86R
DUBUQUE        LGT RAIN  71  70  96 SE10      29.92R FOG
DECORAH        LGT RAIN  70  70 100 CALM      29.93R
MASON CITY     LGT RAIN  71  70  96 VRB3      29.90R
CHARLES CITY   LGT RAIN  72  70  94 N5        29.90R
OELWEIN        CLOUDY    72  72 100 E6        29.90R FOG
$$

...ELSEWHERE IN IOWA...


CITY           SKY/WX    TMP DP  RH WIND       PRES   REMARKS
DES MOINES     CLOUDY    79  70  74 SW10      29.83S
IOWA CITY      CLOUDY    75  72  90 SE5       29.90R FOG
FORT DODGE     CLOUDY    75  70  83 SW8       29.86R
MARSHALLTOWN   CLOUDY    77  71  82 SW10      29.84R
CEDAR RAPIDS   CLOUDY    74  72  93 SE6       29.89R
$$

...NORTHERN ILLINOIS...


CITY           SKY/WX    TMP DP  RH WIND       PRES   REMARKS
CHICAGO-OHARE  LGT RAIN  72  68  87 CALM      29.96F FOG
DUPAGE         LGT RAIN  70  69  97 S9        29.95F
CHICAGO-MIDWAY RAIN      74  73  97 S7        29.98S FOG
MOLINE         CLOUDY    76  69  79 CALM      29.91S
ROCKFORD       CLOUDY    71  69  93 S10       29.95S
STERLING       CLOUDY    72  70  94 SE7       29.95S
PEORIA         CLOUDY    77  71  82 S6        29.95S
$$

NOTE: "FAIR" INDICATES FEW OR NO CLOUDS BELOW 12,000 FEET WITH NO
SIGNIFICANT WEATHER AND/OR OBSTRUCTIONS TO VISIBILITY. WIND
SPEEDS ARE IN MILES-PER-HOUR.



USA.gov is the U.S. government's official web portal to all federal, state and local government web resources and services.